Regional Weather Roundup
Issued by NWS

Home | Current Version | Previous Version | Graphics & Text | Print | Product List | Glossary On
Versions: 1 2 3 4 5 6 7 8 9 10 11 12 13 14 15 16 17 18 19 20 21 22 23 24 25 26 27
000
ASUS45 KBOU 220010
RWRCO

WEATHER ROUNDUP FOR COLORADO
NATIONAL WEATHER SERVICE DENVER/BOULDER CO
600 PM MDT MON MAY 21 2018

NOTE: "FAIR" INDICATES FEW OR NO CLOUDS BELOW 12000 FEET WITH NO
SIGNIFICANT WEATHER AND/OR OBSTRUCTIONS TO VISIBILITY.

COZ001>005-013-030-031-220100-
...NORTHWEST COLORADO...

CITY           SKY/WX    TMP DP  RH WIND       PRES   REMARKS
CRAIG          FAIR      74  30  19 VRB3      29.95S
HAYDEN         FAIR      71  32  23 VRB5      29.99S
MEEKER         FAIR      78  21  12 N9        29.94F
RANGELY        FAIR      79  17  10 SW9       29.87S
RABBIT EARS PA FAIR      54  21  28 SW5       30.25F
STEAMBOAT SPGS FAIR      71  28  20 W7        30.00S
WALDEN         FAIR      64  21  19 W8        30.10S
$$

COZ006>008-011-220100-
...WEST CENTRAL VALLEYS...

CITY           SKY/WX    TMP DP  RH WIND       PRES   REMARKS
GRAND JUNCTION FAIR      82  28  14 W10       29.81S
MONTROSE       FAIR      79  15   9 NW5       29.89S
EAGLE          FAIR      75  22  13 W8        29.98S
RIFLE          FAIR      80  17   9 CALM      29.87F
DELTA          FAIR      83  19   9 S10G22    29.86R
NUCLA          FAIR      77  12   8 E3G25     29.93R
$$

COZ017>023-064>068-220100-
...SOUTHWEST COLORADO...

CITY           SKY/WX    TMP DP  RH WIND       PRES   REMARKS
DURANGO        FAIR      60  42  51 N22       30.11S
CORTEZ         CLOUDY    68  35  29 E21G30    29.97R
PAGOSA SPRINGS FAIR      54  40  59 E8        30.21F
TELLURIDE      FAIR      55  32  41 S12G33    30.20R
WOLF CREEK PAS CLOUDY    32  32 100 NW6       30.44F WCI  26
$$

COZ009-010-012-014-032>034-037-058>063-220100-
...CENTRAL COLORADO...

CITY           SKY/WX    TMP DP  RH WIND       PRES   REMARKS
ASPEN          FAIR      69  23  17 CALM      30.03F
BUENA VISTA    FAIR      56  33  41 SE8G18    30.17S
COPPER MTN     CLOUDY    52  27  37 E10G21    30.36S
BERTHOUD PASS  CLOUDY    37  28  70 SE16G23   30.39S
COTTONWOOD PAS PTSUNNY   57  32  38 SW5       30.26R
GUNNISON       FAIR      60  39  45 E25       30.11R
GRANBY         FAIR      67  24  20 NW5       30.10R
KREMMLING      FAIR      77   9   7 SW7       30.04R
LEADVILLE      PTSUNNY   51  31  46 S10       30.22R
MONARCH PASS   CLOUDY    36  32  87 MISG      30.48F
SALIDA         CLOUDY    58  44  60 CALM      30.24R
SUNLIGHT       CLOUDY    52  18  25 CALM      30.28S
WILKERSON PASS CLOUDY    41  30  65 S13G23    30.37S
$$

COZ069>075-220100-
...SAN LUIS VALLEY/SANGRE DE CRISTO MOUNTAINS...

CITY           SKY/WX    TMP DP  RH WIND       PRES   REMARKS
ALAMOSA        LGT RAIN  48  45  89 NW8       30.24R
DEL NORTE      LGT RAIN  46  41  85 SW7       30.26F
LA VETA PASS   FAIR      45  34  65 S13       30.43R THUNDER
SAGUACHE       NOT AVBL
$$

COZ035-036-038>040-220100-
...NORTHERN COLORADO FRONT RANGE...

CITY           SKY/WX    TMP DP  RH WIND       PRES   REMARKS
DENVER INTL AP PTSUNNY   78  34  20 SE20      29.95R
AURORA         MOSUNNY   72  37  28 SE14      29.98R
FRONT RANGE AP PTSUNNY   77  34  20 SE15      29.97R
ERIE MUNI ARPT FAIR      79  32  18 S3        29.97F
BOULDER MUN AP FAIR      75  50  41 N7        29.94S
CENTENNIAL     PTSUNNY   71  36  27 SW9G20    29.99R
BROOMFIELD     PTSUNNY   77  32  19 S13       29.97S
FORT COLLINS   FAIR      75  48  38 E8        29.94F
LONGMONT       FAIR      73  51  45 NW8       29.95S
$$

COZ041-046-047-076>085-087-088-220100-
...PIKES PEAK/PALMER DIVIDE AND SOUTHERN FOOTHILLS...

CITY           SKY/WX    TMP DP  RH WIND       PRES   REMARKS
COLO. SPRINGS  PTSUNNY   68  38  33 W13G31    30.05R
A. F. ACADEMY  MOSUNNY   64  35  34 NW10G17   30.06F
SCHRIEVER AFB  NOT AVBL
CHEYENNE MTN   FAIR      65  31  27 CALM      30.03S
ELLICOTT         N/A    N/A N/A N/A SW21      30.03R
FALCON         FAIR      66  32  28 W22       30.09S
FORT CARSON    FAIR      74  33  22 E10       30.00S
LIMON          FAIR      74  33  22 SW18G32   29.98R
MONUMENT HILL  PTSUNNY   61  36  39 SW16G22   30.10F
CANON CITY     FAIR      72  39  30 NW20G28   30.00R
WALSENBURG     MOCLDY    64  43  45 S23G35    30.09R
TRINIDAD       LGT RAIN  62  43  49 W14G26    30.06F
$$

COZ042>045-048>051-090-091-220100-
...NORTHEAST COLORADO...

CITY           SKY/WX    TMP DP  RH WIND       PRES   REMARKS
GREELEY ARPT   FAIR      75  47  36 E9        29.94R
AKRON          FAIR      76  55  48 E9        29.93F
BURLINGTON     FAIR      83  49  30 S10       29.92S
WRAY           FAIR      77  54  44 SE3       29.89F
YUMA           FAIR      72  55  56 E6        29.91S
STERLING       FAIR      79  54  41 E8        29.89F
HOLYOKE        FAIR      79  55  44 SE8       29.91F
FORT MORGAN    FAIR      79  43  27 E12       29.93R
$$

COZ086-089-092>099-220100-
...SOUTHEAST COLORADO...

CITY           SKY/WX    TMP DP  RH WIND       PRES   REMARKS
PUEBLO         FAIR      77  38  24 SW26G41   29.95R
LA JUNTA       FAIR      82  34  17 SW14      29.94R
LAMAR          LGT RAIN  72  49  44 MISG      29.91R
SPRINGFIELD      N/A     76  50  40 S17G30    29.99R
$$




USA.gov is the U.S. government's official web portal to all federal, state and local government web resources and services.